Regional Weather Roundup
Issued by NWS

Home | Current Version | Previous Version | Text Only | Print | Product List | Glossary On
Versions: 1 2 3 4 5 6 7 8 9 10 11 12 13 14 15 16 17 18 19 20 21 22 23 24 25 26 27 28 29 30 31 32 33 34 35 36 37 38 39 40 41 42 43 44 45 46 47 48 49 50
689
ASUS44 KLIX 281901
RWRLA
LOUISIANA WEATHER ROUNDUP
NATIONAL WEATHER SERVICE NEW ORLEANS LA
200 PM CDT THU AUG 28 2014

NOTE: "FAIR" INDICATES FEW OR NO CLOUDS BELOW 12,000 FEET WITH NO
      SIGNIFICANT WEATHER AND/OR OBSTRUCTIONS TO VISIBILITY.
      SKY/WX - SKY CONDITION AND SIGNIFICANT WEATHER.
      TMP - AIR TEMPERATURE.    DP   - DEWPOINT TEMPERATURE.
      RH  - RELATIVE HUMIDITY.  PRES - PRESSURE.
      HX  - HEAT INDEX.         WCI  - WIND CHILL INDEX.

*  THESE STATIONS ARE NOT NWS OR FAA STATIONS AND ARE NOT UNDER
   NWS QUALITY CONTROL.

LAZ040-048-061>063-065-066-069-282000-
SOUTHEAST LOUISIANA

CITY           SKY/WX    TMP DP  RH WIND       PRES   REMARKS
N.O. AUDUBON     N/A     91  72  54 MISG        N/A  HX  98
N.O. INTL ARPT PTSUNNY   92  69  47 S9        29.97F HX  97
N.O. LAKEFRONT CLOUDY    87  74  64 E13       29.98F HX  95
N.O. DOWNTOWN* MOCLDY    91  70  49 NE7       29.98F HX  97
SLIDELL        PTSUNNY   89  73  59 VRB5      29.97F HX  97
BATON ROUGE    CLOUDY    87  73  62 E8        29.97F
BOOTHVILLE     MOSUNNY   88  73  61 E9        29.98F HX  95
BELLE CHASSE   PTSUNNY   90  70  51 SE9       29.97F HX  95
BOGALUSA*      FAIR      92  65  41 S3        29.99F
GALLIANO*      NOT AVBL
NEW ROADS*     FAIR      90  71  54 SE7       29.97F HX  96
GONZALES*      FAIR      90  72  54 E7        29.96F HX  97
HAMMOND*       NOT AVBL
HOUMA*         MOSUNNY   91  70  49 SE9       29.97S HX  97
PORT FOURCHON* PTCLDY    88  73  62 E13       29.98F HX  96

$$

LAZ041-044-053-054-282000-
SOUTHWEST LOUISIANA

CITY           SKY/WX    TMP DP  RH WIND       PRES   REMARKS
LAKE CHARLES   CLOUDY    85  74  69 SE7       29.96F
LAFAYETTE      PTSUNNY   89  72  56 VRB5      29.96F HX  96
PATTERSON      CLOUDY    84  77  79 SE6       29.99F
SALT POINT       N/A     89  77  67 VRB7      29.95F HX 101
NEW IBERIA     PTSUNNY   90  74  59 S7        29.97F HX  99
CHENAULT AIRPK PTSUNNY   84  72  65 SE8       29.98F

$$

LAZ027-028-282000-
CENTRAL LOUISIANA

CITY           SKY/WX    TMP DP  RH WIND       PRES   REMARKS
FORT POLK      LGT RAIN  78  74  87 S7G17     29.99R FOG
ALEXANDRIA INT PTSUNNY   91  71  51 S8        29.95F HX  97
ALEXANDRIA     MOSUNNY   91  71  51 S8        29.97F HX  97

$$

LAZ001-002-282000-
NORTHWEST LOUISIANA

CITY           SKY/WX    TMP DP  RH WIND       PRES   REMARKS
SHREVEPORT     MOSUNNY   92  69  47 S8        29.94F HX  97
BARKSDALE AFB  MOSUNNY   93  70  48 S8        29.95F HX  99
DTN SHREVEPORT MOSUNNY   93  70  46 VRB6G18   29.95F HX  99

$$

LAZ014-016-282000-
NORTHEAST LOUISIANA

CITY           SKY/WX    TMP DP  RH WIND       PRES   REMARKS
MONROE         PTSUNNY   91  70  49 VRB3      29.97F HX  96
TALLULAH       PTSUNNY   92  66  42 CALM      29.97F

$$




USA.gov is the U.S. government's official web portal to all federal, state and local government web resources and services.